Flag for Denmark Weather past 2 weeks in Hirtshals, Denmark

Now
64 °F

Mild.


Feels Like: 64 °F
Forecast: 61 / 71 °F
Wind: 10 mph from Southeast

Location: Aalborg

Current Time: Jul 2, 2015 at 8:17:52 AM

Latest Report: Jul 2, 2015 at 7:00 AM


Visibility: 22 mi

Pressure: 30.30 "Hg

Humidity: 78%

Dew point: 57 °F

Location of HirtshalsLocation

Historic Weather in Hirtshals — Graph

°F

Hirtshals temperature yesterday

Maximum temperature yesterday: 76 °F (at 3:00 PM)
Minimum temperature yesterday: 53 °F (at 4:00 AM)
Average temperature yesterday: 65 °F

Past Weeks' High & Low Weather Summary

 TemperatureHumidityPressure
High76 °F (Jul 1, 3:00 PM)99% (Jun 23, 8:00 AM)30.29 "Hg (Jun 23, 8:00 AM)
Low48 °F (Jun 26, 4:00 AM)43% (Jul 1, 7:00 PM)29.61 "Hg (Jun 22, 8:00 PM)
Average58 °F79%29.94 "Hg
* Reported Jun 17 6:00 AM — Jul 2 6:00 AM, Hirtshals, Weather by CustomWeather, © 2015

Note: Actual official high and low records may vary slightly from our data, if they occured in-between our weather recording intervals... More about our weather records

Advertising

Hirtshals weather history for previous 24 hours

 ConditionsComfort  
Time TempWeatherWind HumidityBarometerVisibility
6:00 AM
Thu, Jul 2
62 °FCool.9 mph85%30.29 "Hg22 mi
5:00 AM60 °FSunny.7 mph86%30.29 "Hg12 mi
4:00 AM61 °FCool.7 mph85%30.29 "Hg22 mi
3:00 AM59 °FCool.8 mph90%30.29 "Hg22 mi
2:00 AM60 °FClear.9 mph86%30.29 "Hg16 mi
1:00 AM58 °FCool.9 mph84%30.28 "Hg22 mi
12:00 AM60 °FCool.7 mph80%30.28 "Hg22 mi
10:00 PM
Wed, Jul 1
64 °FMild.9 mph64%30.27 "Hg22 mi
9:00 PM67 °FMild.10 mph56%30.26 "Hg22 mi
8:00 PM70 °FSunny.12 mph51%30.26 "Hg19 mi
7:00 PM72 °FMild.13 mph43%30.27 "Hg22 mi
6:00 PM73 °FMild.14 mph53%30.26 "Hg22 mi
5:00 PM75 °FSunny.12 mph51%30.26 "Hg19 mi
4:00 PM75 °FMild.13 mph50%30.27 "Hg22 mi
3:00 PM76 °FMild.13 mph45%30.27 "Hg22 mi
2:00 PM75 °FSunny.9 mph50%30.27 "Hg19 mi
1:00 PM74 °FMild.7 mph44%30.28 "Hg22 mi
12:00 PM72 °FMild.1 mph51%30.28 "Hg22 mi
11:00 AM69 °FSunny.3 mph60%30.29 "Hg19 mi
10:00 AM67 °FMild.3 mph64%30.29 "Hg22 mi
9:00 AM64 °FMild.3 mph71%30.28 "Hg22 mi
8:00 AM61 °FSunny.5 mph81%30.27 "Hg16 mi
Weather by CustomWeather, © 2015

See weather overviewHow to use our weather pages